UFO 4 (USA 108)

Last updated on Wed Nov 05 2025 00:02:45 GMT+0000 (Coordinated Universal Time)

1 23467U 95003A 25308.47822463 -.00000012 00000+0 00000+0 0 9995 2 23467 9.7049 13.9532 0004333 206.9637 167.5538 1.00273250112708
UTC large
Height (km)
Speed (km/s)
/
Latitude / Longitude
Inclination (degrees)
Orbital Period (minutes)
Azimuth
Elevation
Range (km)
Doppler Factor

Next 0 passes for location: London (51.5072 / 0.1276)

Sorry there are no passes over London.